| time (UTC) | temp F | wind direction | speed MPH | gust MPH | rain 1hr in | rain 24hr in | rain mn in | humidity % | barometer mb |
| 20260504043045 | 42 | 0 | 0.0 | 1.0 | 0.00 | 0.00 | 0.00 | 77 | 1012.3 |
| 20260504042513 | 42 | 309 | 0.0 | 1.0 | 0.00 | 0.00 | 0.00 | 76 | 1012.2 |
| 20260504042013 | 42 | 0 | 0.0 | 1.0 | 0.00 | 0.00 | 0.00 | 75 | 1012.2 |
| 20260504041534 | 42 | 0 | 0.0 | 1.0 | 0.00 | 0.00 | 0.00 | 76 | 1012.1 |
| 20260504041015 | 42 | 0 | 0.0 | 2.0 | 0.00 | 0.00 | 0.00 | 76 | 1012.2 |
| 20260504040515 | 42 | 291 | 0.0 | 2.0 | 0.00 | 0.00 | 0.00 | 75 | 1012.2 |
| 20260504040030 | 42 | 0 | 0.0 | 1.0 | 0.00 | 0.00 | 0.00 | 74 | 1012.1 |
| 20260504035513 | 42 | 0 | 0.0 | 1.0 | 0.00 | 0.00 | 0.00 | 73 | 1012.1 |
| 20260504035013 | 43 | 0 | 0.0 | 1.0 | 0.00 | 0.00 | 0.00 | 74 | 1012.1 |
| 20260504034539 | 43 | 325 | 0.0 | 2.0 | 0.00 | 0.00 | 0.00 | 74 | 1012.2 |
| 20260504034013 | 43 | 0 | 0.0 | 2.0 | 0.00 | 0.00 | 0.00 | 74 | 1012.1 |
| 20260504033514 | 43 | 221 | 0.0 | 2.0 | 0.00 | 0.00 | 0.00 | 74 | 1012.1 |
| 20260504033030 | 43 | 0 | 0.0 | 1.0 | 0.00 | 0.00 | 0.00 | 73 | 1012.0 |
| 20260504032512 | 43 | 0 | 0.0 | 1.0 | 0.00 | 0.00 | 0.00 | 72 | 1012.0 |
| 20260504032012 | 43 | 291 | 0.0 | 1.0 | 0.00 | 0.00 | 0.00 | 71 | 1011.9 |
| 20260504031535 | 43 | 0 | 0.0 | 1.0 | 0.00 | 0.00 | 0.00 | 72 | 1012.0 |
| 20260504031012 | 44 | 0 | 0.0 | 1.0 | 0.00 | 0.00 | 0.00 | 72 | 1012.0 |
| 20260504030513 | 44 | 0 | 0.0 | 2.0 | 0.00 | 0.00 | 0.00 | 70 | 1012.1 |
| 20260504030036 | 44 | 0 | 0.0 | 2.0 | 0.00 | 0.00 | 0.00 | 70 | 1012.1 |
| 20260504025514 | 44 | 137 | 0.0 | 2.0 | 0.00 | 0.00 | 0.00 | 70 | 1012.1 |
| 20260504025019 | 44 | 51 | 0.0 | 1.0 | 0.00 | 0.00 | 0.00 | 71 | 1012.2 |
| 20260504024530 | 44 | 0 | 0.0 | 1.0 | 0.00 | 0.00 | 0.00 | 70 | 1012.2 |
| 20260504024015 | 44 | 309 | 0.0 | 1.0 | 0.00 | 0.00 | 0.00 | 68 | 1012.3 |
| 20260504023515 | 45 | 0 | 0.0 | 2.0 | 0.00 | 0.00 | 0.00 | 67 | 1012.3 |
| 20260504023031 | 45 | 0 | 0.0 | 2.0 | 0.00 | 0.00 | 0.00 | 67 | 1012.3 |
| 20260504022514 | 45 | 221 | 1.0 | 2.0 | 0.00 | 0.00 | 0.00 | 67 | 1012.2 |
| 20260504022015 | 45 | 190 | 1.0 | 2.0 | 0.00 | 0.00 | 0.00 | 67 | 1012.3 |
| 20260504021537 | 45 | 51 | 0.0 | 1.0 | 0.00 | 0.00 | 0.00 | 64 | 1012.3 |
| 20260504021013 | 45 | 0 | 0.0 | 1.0 | 0.00 | 0.00 | 0.00 | 63 | 1012.3 |
| 20260504020515 | 45 | 0 | 0.0 | 1.0 | 0.00 | 0.00 | 0.00 | 62 | 1012.2 |
| 20260504020036 | 45 | 51 | 0.0 | 1.0 | 0.00 | 0.00 | 0.00 | 62 | 1012.1 |
| 20260504015515 | 46 | 0 | 0.0 | 1.0 | 0.00 | 0.00 | 0.00 | 61 | 1012.2 |
| 20260504015013 | 46 | 51 | 0.0 | 1.0 | 0.00 | 0.00 | 0.00 | 63 | 1012.1 |
| 20260504014532 | 46 | 0 | 0.0 | 2.0 | 0.00 | 0.00 | 0.00 | 61 | 1012.1 |
| 20260504014014 | 46 | 9 | 0.0 | 2.0 | 0.00 | 0.00 | 0.00 | 62 | 1012.1 |
| 20260504013516 | 46 | 0 | 0.0 | 2.0 | 0.00 | 0.00 | 0.00 | 59 | 1012.0 |
| 20260504013035 | 47 | 67 | 1.0 | 2.0 | 0.00 | 0.00 | 0.00 | 61 | 1011.9 |
| 20260504012515 | 47 | 0 | 0.0 | 1.0 | 0.00 | 0.00 | 0.00 | 61 | 1011.9 |
| 20260504012013 | 47 | 9 | 0.0 | 1.0 | 0.00 | 0.00 | 0.00 | 58 | 1011.9 |
| 20260504011530 | 48 | 0 | 0.0 | 2.0 | 0.00 | 0.00 | 0.00 | 56 | 1011.8 |
| 20260504011016 | 48 | 0 | 0.0 | 2.0 | 0.00 | 0.00 | 0.00 | 58 | 1011.7 |
| 20260504010515 | 48 | 51 | 0.0 | 2.0 | 0.00 | 0.00 | 0.00 | 59 | 1011.7 |
| 20260504010032 | 49 | 9 | 0.0 | 2.0 | 0.00 | 0.00 | 0.00 | 58 | 1011.6 |
| 20260504005515 | 49 | 0 | 0.0 | 1.0 | 0.00 | 0.00 | 0.00 | 53 | 1011.5 |
| 20260504005015 | 50 | 0 | 0.0 | 1.0 | 0.00 | 0.00 | 0.00 | 51 | 1011.6 |
| 20260504004541 | 50 | 111 | 0.0 | 1.0 | 0.00 | 0.00 | 0.00 | 50 | 1011.5 |
| 20260504004013 | 51 | 51 | 0.0 | 2.0 | 0.00 | 0.00 | 0.00 | 50 | 1011.5 |
| 20260504003513 | 51 | 51 | 0.0 | 2.0 | 0.00 | 0.00 | 0.00 | 49 | 1011.4 |
| 20260504003028 | 52 | 102 | 0.0 | 2.0 | 0.00 | 0.00 | 0.00 | 47 | 1011.3 |
| 20260504002515 | 52 | 0 | 0.0 | 2.0 | 0.00 | 0.00 | 0.00 | 47 | 1011.2 |
| 20260504002016 | 53 | 309 | 0.0 | 2.0 | 0.00 | 0.00 | 0.00 | 42 | 1011.2 |
| 20260504001535 | 53 | 153 | 0.0 | 2.0 | 0.00 | 0.00 | 0.00 | 40 | 1011.1 |
| 20260504001015 | 54 | 325 | 0.0 | 2.0 | 0.00 | 0.00 | 0.00 | 38 | 1011.1 |
| 20260504000514 | 54 | 221 | 0.0 | 2.0 | 0.00 | 0.00 | 0.00 | 37 | 1011.1 |
| 20260504000029 | 55 | 178 | 0.0 | 3.0 | 0.00 | 0.00 | 0.00 | 37 | 1011.1 |
| 20260503235514 | 55 | 338 | 1.0 | 5.0 | 0.00 | 0.00 | 0.00 | 37 | 1011.1 |
| 20260503235012 | 55 | 291 | 0.0 | 7.0 | 0.00 | 0.00 | 0.00 | 35 | 1010.9 |
| 20260503234535 | 56 | 34 | 3.0 | 7.0 | 0.00 | 0.00 | 0.00 | 34 | 1010.8 |
| 20260503234016 | 56 | 241 | 2.0 | 8.0 | 0.00 | 0.00 | 0.00 | 34 | 1010.8 |
| 20260503233516 | 56 | 321 | 2.0 | 8.0 | 0.00 | 0.00 | 0.00 | 33 | 1010.6 |
| 20260503233029 | 56 | 295 | 3.0 | 8.0 | 0.00 | 0.00 | 0.00 | 33 | 1010.5 |
| 20260503232518 | 56 | 215 | 4.0 | 9.0 | 0.00 | 0.00 | 0.00 | 33 | 1010.4 |
| 20260503232015 | 56 | 282 | 1.0 | 9.0 | 0.00 | 0.00 | 0.00 | 33 | 1010.5 |
| 20260503231530 | 56 | 295 | 2.0 | 10.0 | 0.00 | 0.00 | 0.00 | 33 | 1010.4 |
| 20260503231018 | 56 | 265 | 2.0 | 10.0 | 0.00 | 0.00 | 0.00 | 33 | 1010.4 |
| 20260503230515 | 56 | 298 | 2.0 | 10.0 | 0.00 | 0.00 | 0.00 | 32 | 1010.4 |
| 20260503230028 | 57 | 295 | 3.0 | 10.0 | 0.00 | 0.00 | 0.00 | 32 | 1010.2 |
| 20260503225513 | 56 | 279 | 4.0 | 8.0 | 0.00 | 0.00 | 0.00 | 31 | 1010.2 |
| 20260503225012 | 56 | 291 | 2.0 | 8.0 | 0.00 | 0.00 | 0.00 | 32 | 1010.2 |
| 20260503224532 | 56 | 330 | 3.0 | 11.0 | 0.00 | 0.00 | 0.00 | 31 | 1010.2 |
| 20260503224017 | 57 | 277 | 4.0 | 11.0 | 0.00 | 0.00 | 0.00 | 29 | 1010.1 |
| 20260503223519 | 57 | 0 | 2.0 | 11.0 | 0.00 | 0.00 | 0.00 | 29 | 1010.2 |
| 20260503223032 | 56 | 291 | 2.0 | 11.0 | 0.00 | 0.00 | 0.00 | 29 | 1010.3 |
| 20260503222515 | 57 | 298 | 5.0 | 11.0 | 0.00 | 0.00 | 0.00 | 28 | 1010.3 |
| 20260503222016 | 57 | 306 | 3.0 | 11.0 | 0.00 | 0.00 | 0.00 | 27 | 1010.2 |
| 20260503221540 | 58 | 341 | 3.0 | 10.0 | 0.00 | 0.00 | 0.00 | 30 | 1010.2 |
| 20260503221017 | 58 | 292 | 3.0 | 12.0 | 0.00 | 0.00 | 0.00 | 29 | 1010.3 |
| 20260503220515 | 58 | 301 | 4.0 | 12.0 | 0.00 | 0.00 | 0.00 | 28 | 1010.3 |
| 20260503220037 | 58 | 302 | 3.0 | 11.0 | 0.00 | 0.00 | 0.00 | 27 | 1010.4 |
| 20260503215517 | 58 | 247 | 5.0 | 11.0 | 0.00 | 0.00 | 0.00 | 27 | 1010.3 |
| 20260503215014 | 58 | 280 | 4.0 | 11.0 | 0.00 | 0.00 | 0.00 | 28 | 1010.2 |
| 20260503214546 | 57 | 196 | 3.0 | 17.0 | 0.00 | 0.00 | 0.00 | 29 | 1010.2 |
| 20260503214017 | 57 | 291 | 5.0 | 17.0 | 0.00 | 0.00 | 0.00 | 29 | 1010.2 |
| 20260503213518 | 57 | 336 | 5.0 | 13.0 | 0.00 | 0.00 | 0.00 | 28 | 1010.1 |
| 20260503213035 | 57 | 279 | 6.0 | 17.0 | 0.00 | 0.00 | 0.00 | 28 | 1010.2 |
| 20260503212517 | 57 | 286 | 6.0 | 17.0 | 0.00 | 0.00 | 0.00 | 29 | 1010.1 |
| 20260503212018 | 57 | 303 | 8.0 | 15.0 | 0.00 | 0.00 | 0.00 | 29 | 1009.9 |
| 20260503211531 | 57 | 287 | 4.0 | 14.0 | 0.00 | 0.00 | 0.00 | 30 | 1010.0 |
| 20260503211016 | 57 | 254 | 6.0 | 14.0 | 0.00 | 0.00 | 0.00 | 30 | 1010.0 |
| 20260503210516 | 57 | 269 | 5.0 | 18.0 | 0.00 | 0.00 | 0.00 | 30 | 1010.1 |
| 20260503210031 | 57 | 327 | 6.0 | 18.0 | 0.00 | 0.00 | 0.00 | 30 | 1009.9 |
| 20260503205517 | 57 | 323 | 6.0 | 16.0 | 0.00 | 0.00 | 0.00 | 30 | 1009.8 |
| 20260503205019 | 57 | 321 | 4.0 | 16.0 | 0.00 | 0.00 | 0.00 | 31 | 1009.9 |
| 20260503204542 | 57 | 309 | 4.0 | 12.0 | 0.00 | 0.00 | 0.00 | 32 | 1010.1 |
| 20260503204016 | 57 | 250 | 5.0 | 15.0 | 0.00 | 0.00 | 0.00 | 30 | 1010.1 |
| 20260503203520 | 57 | 214 | 2.0 | 15.0 | 0.00 | 0.00 | 0.00 | 31 | 1010.0 |
| 20260503203033 | 57 | 271 | 6.0 | 15.0 | 0.00 | 0.00 | 0.00 | 33 | 1010.2 |
| 20260503202521 | 57 | 286 | 5.0 | 14.0 | 0.00 | 0.00 | 0.00 | 32 | 1010.2 |
| 20260503202017 | 57 | 330 | 5.0 | 14.0 | 0.00 | 0.00 | 0.00 | 33 | 1010.2 |
| 20260503201537 | 56 | 17 | 6.0 | 12.0 | 0.00 | 0.00 | 0.00 | 32 | 1010.1 |
| 20260503201017 | 56 | 271 | 4.0 | 12.0 | 0.00 | 0.00 | 0.00 | 32 | 1010.1 |
| 20260503200517 | 56 | 325 | 5.0 | 19.0 | 0.00 | 0.00 | 0.00 | 34 | 1010.3 |
| 20260503200032 | 56 | 360 | 6.0 | 19.0 | 0.00 | 0.00 | 0.00 | 34 | 1010.2 |
| 20260503195517 | 55 | 310 | 6.0 | 19.0 | 0.00 | 0.00 | 0.00 | 33 | 1010.2 |
| 20260503195017 | 55 | 221 | 5.0 | 12.0 | 0.00 | 0.00 | 0.00 | 33 | 1010.3 |
| 20260503194534 | 55 | 254 | 7.0 | 12.0 | 0.00 | 0.00 | 0.00 | 35 | 1010.3 |
| 20260503194018 | 56 | 219 | 6.0 | 12.0 | 0.00 | 0.00 | 0.00 | 34 | 1010.3 |
| 20260503193517 | 55 | 280 | 4.0 | 12.0 | 0.00 | 0.00 | 0.00 | 37 | 1010.5 |
| 20260503193034 | 55 | 331 | 6.0 | 17.0 | 0.00 | 0.00 | 0.00 | 35 | 1010.5 |
| 20260503192516 | 55 | 286 | 5.0 | 17.0 | 0.00 | 0.00 | 0.00 | 37 | 1010.6 |
| 20260503192016 | 55 | 305 | 7.0 | 17.0 | 0.00 | 0.00 | 0.00 | 35 | 1010.8 |
| 20260503191534 | 55 | 296 | 5.0 | 14.0 | 0.00 | 0.00 | 0.00 | 38 | 1010.8 |
| 20260503191017 | 55 | 202 | 5.0 | 12.0 | 0.00 | 0.00 | 0.00 | 37 | 1010.8 |
| 20260503190518 | 54 | 68 | 3.0 | 18.0 | 0.00 | 0.00 | 0.00 | 39 | 1010.7 |
| 20260503190041 | 54 | 330 | 5.0 | 18.0 | 0.00 | 0.00 | 0.00 | 38 | 1010.9 |
| 20260503185517 | 54 | 316 | 5.0 | 16.0 | 0.00 | 0.00 | 0.00 | 38 | 1010.9 |
| 20260503185020 | 54 | 315 | 8.0 | 18.0 | 0.00 | 0.00 | 0.00 | 41 | 1011.1 |
| 20260503184530 | 54 | 286 | 7.0 | 18.0 | 0.00 | 0.00 | 0.00 | 38 | 1011.0 |
| 20260503184014 | 54 | 221 | 5.0 | 15.0 | 0.00 | 0.00 | 0.00 | 41 | 1011.0 |
| 20260503183516 | 53 | 121 | 7.0 | 15.0 | 0.00 | 0.00 | 0.00 | 38 | 1011.0 |
| 20260503183038 | 53 | 324 | 7.0 | 19.0 | 0.00 | 0.00 | 0.00 | 39 | 1011.2 |
| 20260503182517 | 53 | 200 | 5.0 | 19.0 | 0.00 | 0.00 | 0.00 | 39 | 1011.2 |
| 20260503182016 | 53 | 271 | 9.0 | 19.0 | 0.00 | 0.00 | 0.00 | 41 | 1011.2 |
| 20260503181549 | 53 | 292 | 5.0 | 12.0 | 0.00 | 0.00 | 0.00 | 41 | 1011.1 |
| 20260503181017 | 53 | 291 | 5.0 | 12.0 | 0.00 | 0.00 | 0.00 | 41 | 1011.0 |
| 20260503180517 | 53 | 76 | 7.0 | 13.0 | 0.00 | 0.00 | 0.00 | 40 | 1011.1 |
| 20260503180045 | 53 | 339 | 5.0 | 13.0 | 0.00 | 0.00 | 0.00 | 42 | 1011.0 |
| 20260503175520 | 52 | 288 | 6.0 | 13.0 | 0.00 | 0.00 | 0.00 | 43 | 1011.1 |
| 20260503175018 | 52 | 242 | 5.0 | 13.0 | 0.00 | 0.00 | 0.00 | 42 | 1011.1 |
| 20260503174534 | 52 | 227 | 5.0 | 13.0 | 0.00 | 0.00 | 0.00 | 41 | 1011.0 |
| 20260503174019 | 52 | 303 | 4.0 | 12.0 | 0.00 | 0.00 | 0.00 | 40 | 1011.1 |
| 20260503173516 | 52 | 213 | 5.0 | 19.0 | 0.00 | 0.00 | 0.00 | 42 | 1011.0 |
| 20260503173031 | 51 | 279 | 3.0 | 19.0 | 0.00 | 0.00 | 0.00 | 42 | 1011.2 |
| 20260503172516 | 52 | 303 | 4.0 | 18.0 | 0.00 | 0.00 | 0.00 | 43 | 1011.2 |
| 20260503172017 | 51 | 288 | 8.0 | 18.0 | 0.00 | 0.00 | 0.00 | 40 | 1011.3 |
| 20260503171530 | 52 | 325 | 9.0 | 18.0 | 0.00 | 0.00 | 0.00 | 39 | 1011.2 |
| 20260503171017 | 52 | 284 | 5.0 | 15.0 | 0.00 | 0.00 | 0.00 | 40 | 1011.2 |
| 20260503170516 | 51 | 144 | 6.0 | 23.0 | 0.00 | 0.00 | 0.00 | 42 | 1011.2 |
| 20260503150516 | 48 | 277 | 5.0 | 10.0 | 0.00 | 0.00 | 0.00 | 48 | 1012.0 |
| 20260503131017 | 47 | 252 | 5.0 | 12.0 | 0.00 | 0.00 | 0.00 | 56 | 1012.1 |
| 20260503130515 | 46 | 232 | 5.0 | 11.0 | 0.00 | 0.00 | 0.00 | 56 | 1012.2 |
| 20260503110523 | 42 | 289 | 2.0 | 8.0 | 0.00 | 0.00 | 0.00 | 64 | 1010.9 |
| 20260503081529 | 42 | 321 | 2.0 | 7.0 | 0.00 | 0.04 | 0.00 | 64 | 1010.2 |
| 20260503081016 | 42 | 332 | 2.0 | 7.0 | 0.00 | 0.04 | 0.00 | 64 | 1010.2 |
| 20260503080514 | 42 | 309 | 2.0 | 5.0 | 0.00 | 0.04 | 0.00 | 64 | 1010.2 |
| 20260503072516 | 43 | 9 | 3.0 | 7.0 | 0.00 | 0.04 | 0.00 | 61 | 1010.3 |
| 20260503072015 | 43 | 28 | 3.0 | 7.0 | 0.00 | 0.04 | 0.00 | 61 | 1010.3 |
| 20260503071532 | 43 | 346 | 3.0 | 7.0 | 0.00 | 0.04 | 0.00 | 60 | 1010.2 |
| 20260503071015 | 44 | 47 | 3.0 | 8.0 | 0.00 | 0.04 | 0.00 | 59 | 1010.3 |
| 20260503070515 | 44 | 108 | 2.0 | 8.0 | 0.00 | 0.04 | 0.00 | 59 | 1010.2 |
| 20260503055015 | 45 | 80 | 2.0 | 9.0 | 0.00 | 0.04 | 0.00 | 56 | 1011.0 |
| 20260503054537 | 45 | 325 | 2.0 | 9.0 | 0.00 | 0.04 | 0.00 | 55 | 1010.9 |
| 20260503054015 | 46 | 16 | 2.0 | 7.0 | 0.00 | 0.04 | 0.00 | 56 | 1010.9 |
| 20260503053516 | 46 | 16 | 2.0 | 9.0 | 0.00 | 0.04 | 0.00 | 54 | 1011.0 |
| 20260503053030 | 46 | 309 | 4.0 | 9.0 | 0.00 | 0.04 | 0.00 | 55 | 1011.1 |
| 20260503052519 | 46 | 303 | 1.0 | 6.0 | 0.00 | 0.04 | 0.00 | 57 | 1011.1 |
| 20260503052017 | 46 | 51 | 1.0 | 7.0 | 0.00 | 0.04 | 0.00 | 56 | 1011.1 |
| 20260503051536 | 46 | 13 | 3.0 | 7.0 | 0.00 | 0.04 | 0.00 | 56 | 1011.2 |
| 20260503051016 | 46 | 13 | 2.0 | 5.0 | 0.00 | 0.04 | 0.00 | 57 | 1011.2 |
| 20260503050516 | 46 | 51 | 1.0 | 5.0 | 0.00 | 0.04 | 0.00 | 57 | 1011.2 |
| 20260503050033 | 46 | 291 | 1.0 | 5.0 | 0.00 | 0.04 | 0.00 | 56 | 1011.3 |
| 20260503045519 | 46 | 61 | 2.0 | 5.0 | 0.00 | 0.04 | 0.00 | 57 | 1011.3 |
| 20260503045017 | 46 | 323 | 1.0 | 5.0 | 0.00 | 0.04 | 0.00 | 56 | 1011.3 |
| 20260503044531 | 46 | 0 | 2.0 | 5.0 | 0.00 | 0.04 | 0.00 | 56 | 1011.4 |
| 20260503044014 | 47 | 30 | 0.0 | 5.0 | 0.00 | 0.04 | 0.00 | 56 | 1011.3 |
| 20260503043514 | 47 | 0 | 1.0 | 8.0 | 0.00 | 0.04 | 0.00 | 56 | 1011.4 |